Location: Moscow
(38.3171°N, 79.0889°W)
Time: 01:26:12
(UTC+00:00)

ATLAS CENTAUR R/B - Pass Details

Date: 07 November 2025
Orbit: 343 x 423 km, 64.6° (Epoch: 08 December)

Event Time Altitude Azimuth Distance (km) Brightness Sun altitude
Rises 23:51:45 0° 232° (SW) 2,417 5.6 -20.2°
Reaches altitude 10° 23:53:59 10° 243° (WSW) 1,564 4.6 -20.6°
Maximum altitude 23:57:06 30° 307° (NW) 832 2.6 -21.2°
Enters shadow 23:58:44 21° 352° (N) 1,089 2.8 -21.5°
